232  
ASUS44 KMEG 232010  
RWRMEG  
MEMPHIS CWA HOURLY WEATHER ROUNDUP  
NATIONAL WEATHER SERVICE MEMPHIS TN  
300 PM CDT SUN JUL 23 2017  
   
..WEST TENNESSEE
 
 
 
CITY SKY/WX TMP DP RH WIND PRES REMARKS
 
MEMPHIS INTL MOSUNNY 96 78 56 S14 29.84F HX 112  
NWS MEMPHIS N/A 96 N/A N/A MISG N/A  
JACKSON MOSUNNY 96 75 50 W7 29.84F HX 108  
COVINGTON PTSUNNY 91 77 62 W5 29.84S HX 105  
SOMERVILLE N/A 93 75 55 S9 29.84F HX 104  
BOLIVAR SUNNY 95 73 49 VRB7 29.84F HX 105  
LEXINGTON MOSUNNY 91 77 62 S8 29.85F HX 105  
SELMER SUNNY 75 72 88 CALM 29.87F HAZE  
SAVANNAH PTSUNNY 86 77 74 NW6 29.85F HX 97  
UNION CITY SUNNY 91 73 55 CALM 29.84F HX 100  
PARIS MOSUNNY 90 73 58 CALM 29.85S HX 98  
HUNTINGDON MOSUNNY 93 77 59 NW5 29.84S HX 107  
 
   
..EASTERN ARKANSAS
 
 
 
CITY SKY/WX TMP DP RH WIND PRES REMARKS
 
JONESBORO PTSUNNY 95 76 53 VRB5 29.83F HX 108  
WEST MEMPHIS SUNNY 93 78 61 VRB7 29.83F HX 108  
BATESVILLE CLOUDY 97 72 44 CALM 29.84F HX 105  
WALNUT RIDGE SUNNY 93 72 49 CALM 29.84F HX 100  
BLYTHEVILLE RAIN 88 80 77 NW6 29.84F HX 104  
SEARCY CLOUDY 84 74 71 SW5 29.86F THUNDER HX 91  
STUTTGART SUNNY 97 64 34 S9 29.86S HX 99  
PINE BLUFF MOSUNNY 93 75 55 S6 29.86S HX 104  
MONTICELLO LGT RAIN 89 78 70 SW5 29.88S HX 103  
 
   
..NORTH MISSISSIPPI
 
 
 
CITY SKY/WX TMP DP RH WIND PRES REMARKS
 
TUPELO PTSUNNY 93 71 48 SE7 29.87F HX 100  
OXFORD PTSUNNY 91 72 52 SW7 29.89S HX 98  
BATESVILLE MOSUNNY 91 73 55 CALM 29.86F HX 100  
OLIVE BRANCH MOSUNNY N/A N/A N/A SW9 29.84F  
TUNICA N/A 91 75 59 S6 29.85F HX 102  
CLARKSDALE N/A 93 81 66 S7 29.86S HX 113  
CORINTH PTSUNNY 93 73 52 CALM 29.86S HX 102  
GREENWOOD MOSUNNY 92 76 59 VRB3 29.87F HX 104  
COLUMBUS CLOUDY 91 76 60 SE3 29.88F HX 102  
STARKVILLE CLOUDY 91 73 55 S7 29.91S HX 100  
GOLDEN TRIANGL MOSUNNY 91 72 52 S5 29.86F HX 98  
 
   
..SOUTHEAST MISSOURI
 
 
 
CITY SKY/WX TMP DP RH WIND PRES REMARKS
 
KENNETT MOSUNNY 93 77 59 VRB6 29.82F HX 107  
MALDEN PTSUNNY 91 70 49 NE9 29.86F HX 97  
WEST PLAINS MOSUNNY 94 61 33 NE9 29.92S HX 94  
POPLAR BLUFF MOSUNNY 90 76 63 E5 29.85F HX 101  
CAPE GIRARDEAU SUNNY 93 66 40 MISG 29.84F HX 96  
 
   
..NORTHWEST ALABAMA
 
 
 
CITY SKY/WX TMP DP RH WIND PRES REMARKS
 
MUSCLE SHOALS MOSUNNY 92 71 50 S6 29.89F HX 98  
 
   
..MIDDLE TENNESSEE
 
 
 
CITY SKY/WX TMP DP RH WIND PRES REMARKS
 
NASHVILLE PTSUNNY 94 74 52 SW7 29.85F HX 104  
CLARKSVILLE PTSUNNY 91 75 59 W10 29.85S HX 101  
COLUMBIA MOSUNNY 91 75 59 VRB5 29.85F HX 102  
 
   
..WESTERN KENTUCKY
 
 
 
CITY SKY/WX TMP DP RH WIND PRES REMARKS
 
PADUCAH SUNNY 92 69 47 SW3 29.84F HX 97  
FORT CAMPBELL SUNNY 90 74 59 NW8 29.85S HX 100  
 
   
..CENTRAL ARKANSAS
 
 
 
CITY SKY/WX TMP DP RH WIND PRES REMARKS
 
LITTLE ROCK MOSUNNY 94 72 48 SE6 29.84F HX 102  
 
SKY/WX REPORTED AS FAIR MEANS FEW OR NO CLOUDS BELOW  
12 THOUSAND FEET.  
 
 
 
CLICK HERE TO GO TO PREVIOUS BULLETINS.

The Nexlab TN Page
The Nexlab MS Page
The Nexlab AR Page Main Text Page